Theta_e
279 279 280 282 283 283 283 284 282 278 280 284 283 286 285 285 286 285 289 295 299 302 303 304 305 305 304 304 305 306 307 306 305 304 304 305 305 306
279 279 279 282 282 283 283 285 284 283 280 285 284 285 285 286 285 285 286 291 294 297 299 301 302 303 304 305 305 305 304 303 302 303 304 304 304 305
278 278 279 282 281 282 284 284 284 284 281 284 286 286 285 285 285 285 285 286 293 295 297 298 299 300 300 300 300 299 299 300 300 301 302 302 303 304
277 277 278 281 280 281 284 283 283 284 283 281 284 285 284 285 285 284 285 286 287 293 296 298 298 297 297 297 296 296 296 296 297 297 299 300 301 302
277 277 278 280 280 283 283 282 283 284 283 283 282 285 285 285 285 285 284 285 286 289 292 294 296 295 295 294 294 294 294 295 295 295 296 297 298 300
277 278 278 280 280 282 283 283 283 282 281 281 281 282 283 285 285 283 282 284 284 287 288 289 290 292 293 293 293 293 294 294 295 295 295 296 296 297
277 278 279 281 283 283 283 283 282 281 281 279 279 280 280 281 282 284 282 283 284 285 285 285 286 286 289 291 291 293 294 295 295 295 295 295 295 296
276 277 278 280 282 283 284 285 284 282 280 279 279 278 279 280 282 283 283 282 280 285 284 283 285 284 285 288 292 293 294 295 295 295 295 295 295 295
277 277 278 279 281 281 282 283 283 284 284 282 279 279 279 280 282 282 281 281 280 282 284 281 284 283 284 286 291 292 293 294 295 295 295 294 294 294
277 276 278 278 280 280 279 279 280 280 282 283 282 282 282 283 283 284 282 281 281 283 283 280 283 282 284 285 290 291 293 293 294 295 295 294 293 294
277 277 278 278 281 282 278 277 277 279 283 285 285 285 284 285 285 285 281 281 278 280 282 282 281 279 282 284 285 289 291 292 293 294 294 294 293 292
273 277 278 279 281 281 278 277 275 277 279 280 281 282 283 282 283 282 281 282 280 278 280 281 279 282 276 282 285 286 286 289 291 292 294 294 293 290
273 274 276 280 280 281 280 278 277 278 278 279 279 280 281 281 281 281 282 282 281 279 282 282 281 280 278 275 283 285 285 286 287 287 290 293 293 291
271 272 275 279 280 280 279 279 278 277 276 276 275 276 278 280 279 280 281 281 282 281 282 282 280 281 277 276 280 283 285 286 286 286 287 289 291 292
273 275 277 278 277 275 278 277 273 272 272 271 272 274 277 281 280 280 279 281 282 283 284 284 283 282 280 276 280 281 283 286 286 286 287 286 286 287
271 270 275 275 275 274 272 273 272 271 270 271 271 274 276 279 277 279 278 280 281 282 284 284 283 282 282 281 283 283 284 283 285 285 287 287 287 287
265 264 266 266 267 267 268 270 270 270 269 270 271 272 273 278 279 280 282 281 280 280 281 283 284 284 284 283 283 283 283 284 285 285 287 287 286 286
262 259 263 264 264 265 266 267 268 268 268 270 270 271 270 276 278 280 281 280 280 280 281 281 279 279 280 284 285 282 285 284 285 286 285 286 285 286
259 258 259 261 262 263 265 265 266 268 268 269 269 270 271 275 277 277 280 280 280 280 280 280 282 280 279 278 282 286 282 284 286 286 286 286 285 285
256 255 255 257 259 260 263 264 265 266 266 267 268 268 269 272 275 276 277 278 279 277 277 278 279 280 278 279 280 283 286 284 285 285 286 285 286 288
254 254 255 255 256 258 260 261 263 265 265 265 266 267 268 269 270 273 276 278 276 275 277 278 278 278 280 284 282 282 285 286 285 285 285 286 286 286
254 254 254 254 254 255 258 259 261 263 264 264 265 266 268 267 268 272 275 276 275 274 280 282 282 280 282 283 281 282 283 285 287 286 286 286 285 284
254 253 253 252 253 253 256 258 258 259 262 262 264 265 267 267 270 272 276 278 279 280 281 282 283 280 281 283 283 283 284 284 285 285 286 287 286 286
Wind_Speed
6 9 8 10 11 11 11 11 11 13 12 14 11 17 16 17 26 23 25 41 40 38 35 35 32 30 28 25 23 20 20 17 15 14 11 11 10 8
7 9 9 11 12 11 11 11 10 10 8 8 10 14 16 15 22 21 22 30 36 34 32 30 27 26 24 25 22 22 19 16 15 13 12 12 8 10
9 10 11 13 11 12 10 11 11 10 9 8 7 11 14 16 16 16 16 15 16 29 28 27 27 27 27 24 23 22 19 18 16 15 13 11 11 12
10 11 11 10 13 13 11 14 12 11 10 11 8 9 10 12 13 15 11 12 13 26 27 25 27 27 24 24 23 19 16 15 15 13 11 12 13 14
8 9 11 13 13 12 12 12 11 10 10 8 8 7 5 8 8 9 12 11 10 22 24 26 26 26 25 22 18 17 16 16 14 12 12 14 15 15
8 9 9 12 13 12 12 11 12 10 10 8 8 7 7 7 5 7 8 8 9 9 16 19 21 23 23 21 18 16 16 17 14 13 13 16 17 15
7 9 9 12 21 19 9 10 11 9 8 8 8 7 8 6 8 3 4 5 9 8 8 10 9 10 11 15 13 18 19 17 14 13 15 17 17 15
9 9 10 12 16 23 21 20 15 11 10 8 8 9 9 8 5 4 4 3 3 7 5 9 8 9 8 8 18 18 20 19 18 15 17 17 17 17
9 10 10 10 13 14 17 17 13 19 16 7 8 7 6 9 8 6 6 5 3 4 3 6 5 8 8 7 18 19 20 19 18 16 17 18 18 19
7 8 11 13 15 16 12 12 11 11 10 6 5 6 6 7 7 3 3 2 2 4 4 3 4 6 5 6 18 18 18 19 20 20 18 17 16 20
7 6 9 12 20 22 12 13 12 10 12 15 15 15 14 15 12 3 4 2 3 3 5 2 3 2 5 8 7 18 18 17 21 23 23 17 15 11
5 7 14 15 18 20 10 10 12 10 10 9 7 8 9 9 14 7 4 3 1 2 3 3 3 2 3 4 7 7 6 16 19 22 23 22 15 5
4 5 6 17 18 19 18 11 11 9 12 8 6 6 5 5 5 5 5 3 2 2 3 1 2 3 3 2 3 6 7 7 8 10 16 21 23 15
3 4 6 15 16 17 14 19 17 11 7 7 6 6 6 5 4 4 4 4 4 4 3 3 2 1 2 2 3 4 6 8 7 8 8 12 17 18
2 7 11 13 15 11 18 19 11 7 6 7 7 6 6 4 4 3 2 2 4 5 4 4 3 3 4 2 2 3 4 7 8 6 8 10 8 7
6 5 8 11 13 11 8 9 7 7 6 6 7 6 6 3 3 3 2 3 4 7 9 10 8 6 7 5 4 4 6 3 5 6 6 8 9 9
4 4 5 5 8 8 8 7 7 8 8 7 7 7 6 5 3 4 5 5 6 5 7 7 9 11 10 5 6 6 5 5 5 4 7 11 9 8
5 3 4 5 7 7 8 8 8 9 8 7 7 6 6 6 5 4 5 6 6 5 5 3 2 3 4 9 14 5 5 4 5 7 4 10 9 8
5 2 3 4 5 6 6 6 7 8 8 6 6 7 6 5 5 5 5 6 6 5 5 4 5 5 9 6 4 16 3 4 3 9 7 7 7 8
4 3 3 2 3 4 6 6 7 7 7 7 6 6 7 4 5 4 5 4 4 3 5 5 5 5 3 3 2 4 15 3 4 6 6 2 4 5
3 3 2 2 3 3 4 4 5 6 7 6 6 6 6 4 4 4 4 6 5 3 6 6 2 0 2 1 5 5 7 16 9 3 2 4 4 4
3 3 2 2 3 3 4 4 5 7 7 7 7 6 5 3 3 3 4 4 3 1 5 5 5 3 4 5 5 4 3 5 12 20 18 9 2 4
3 3 2 2 3 3 4 4 4 5 6 6 6 6 6 5 4 3 4 4 2 4 5 6 5 3 2 4 4 5 6 5 5 10 11 15 19 20
Wind_Direction
342 347 347 342 335 335 335 338 336 340 351 356 355 357 4 12 12 20 29 45 57 65 70 74 83 89 93 99 101 105 100 103 96 86 79 69 48 26
355 349 356 343 340 340 340 347 344 344 345 346 2 357 3 13 12 24 24 41 51 60 65 71 79 86 88 87 91 90 88 87 83 77 64 57 43 34
350 354 356 352 343 341 345 351 353 349 351 357 358 359 12 18 18 20 24 29 44 59 66 69 70 75 76 78 76 72 67 65 66 62 54 47 37 35
352 354 352 355 350 344 348 356 356 353 350 353 2 358 18 1 20 24 21 28 30 39 51 69 69 69 69 68 67 69 73 68 64 63 53 45 38 32
350 353 343 356 352 350 350 359 355 355 357 1 360 0 352 7 16 23 22 28 29 34 39 50 64 67 65 67 72 72 67 65 62 59 52 41 38 33
354 353 345 356 350 358 349 0 352 358 359 4 4 5 9 358 11 32 31 25 27 33 41 42 44 51 60 59 59 63 60 58 55 49 49 47 39 33
357 355 345 354 359 6 358 360 0 360 3 4 9 3 10 5 11 356 26 20 36 22 42 34 35 36 32 39 43 50 53 54 50 51 57 51 46 38
7 356 344 352 356 5 7 9 16 7 8 8 358 6 1 357 341 12 11 359 18 6 29 43 30 36 16 34 42 50 51 46 44 54 61 54 49 48
21 358 348 0 354 1 5 5 9 13 12 4 0 2 346 348 339 12 37 49 45 345 11 40 18 42 24 9 41 39 42 42 45 62 65 52 47 53
23 356 348 1 2 2 3 7 4 1 354 4 8 357 357 354 356 3 26 27 23 18 8 58 357 35 18 20 32 36 38 42 47 50 61 47 47 53
24 12 352 4 5 9 5 5 5 359 343 4 19 19 23 23 24 358 7 43 26 355 6 55 352 343 18 22 8 21 28 39 46 49 46 40 37 46
360 15 7 9 11 12 13 358 4 354 343 353 358 8 14 16 28 27 358 35 57 47 331 61 340 357 29 346 14 10 359 26 43 46 46 45 42 53
7 9 355 8 14 15 18 12 6 359 344 349 352 360 351 8 23 16 17 15 9 64 332 32 17 9 66 347 335 7 8 15 30 30 34 44 48 48
19 346 341 9 17 18 23 20 17 11 355 352 351 357 358 7 359 6 27 38 39 69 340 15 50 53 108 40 10 335 19 22 29 36 32 31 41 44
1 1 4 19 21 16 18 22 14 10 3 2 351 344 341 341 338 347 350 50 47 37 9 27 51 51 58 81 60 356 5 13 25 36 47 43 33 21
21 356 24 32 34 21 359 11 13 8 2 354 338 327 330 0 1 339 18 20 56 52 40 44 39 56 76 57 59 45 20 48 348 25 50 57 39 33
42 21 16 11 17 8 358 3 9 7 8 356 350 345 342 359 12 1 38 51 69 71 65 55 56 64 62 42 61 32 11 42 16 8 54 62 37 27
52 36 35 22 23 3 358 355 4 3 358 352 350 344 345 7 17 22 52 58 68 57 63 18 4 42 42 49 45 17 27 29 16 35 42 75 52 20
82 44 56 32 20 358 357 356 348 352 343 353 350 349 346 2 26 33 55 65 59 46 36 11 50 60 87 83 327 20 18 6 37 61 54 62 81 48
75 80 65 34 29 6 350 357 348 349 352 352 355 352 351 351 27 31 44 59 63 55 54 41 48 45 61 55 91 27 22 41 46 75 72 49 94 62
79 67 65 50 30 3 334 345 349 348 344 342 356 1 346 342 8 17 44 60 65 58 77 67 49 139 314 10 78 62 41 40 52 69 56 77 74 56
107 105 79 71 52 12 344 343 1 360 356 355 351 348 344 323 4 356 38 65 47 58 80 73 53 50 49 70 75 79 65 55 48 57 53 64 156 113
118 121 100 82 70 42 2 349 21 354 348 343 344 343 339 347 348 8 48 49 53 72 79 90 77 49 56 75 62 68 63 51 61 66 57 55 77 80